SAUDICOMSAT 1

Last updated on Sun Jun 21 2026 00:03:22 GMT+0000 (Coordinated Universal Time)

1 28369U 04025D 26171.45354760 .00000267 00000+0 72374-4 0 9991 2 28369 98.5770 181.6730 0032440 15.8231 344.3971 14.55475929164604
UTC large
Height (km)
Speed (km/s)
/
Latitude / Longitude
Inclination (degrees)
Orbital Period (minutes)
Azimuth
Elevation
Range (km)
Doppler Factor

Next 0 passes for location: London (51.5072 / 0.1276)

No passes found over London.
SAUDICOMSAT 1